Vorticity
4 5 4 5 5 4 6 1 5 7 2 3 -1 -3 -2 3 1 -2 -4 -4 6 11 15 16 10 11 11 6 2 3 4 4 4 4 2 0 1 2 1 0 4 5 5 9 13 13 12 12 13 11 6 0 1 8 7 4 5 5 5 3 3 2 2 2 2 2 2 4 4 4 6 7 8 7 8 8 6 6 7 7 8 7 6 6 7 8 10 11 11 11 9 7 6 6 7 8 8
4 5 3 6 5 4 7 3 6 7 2 2 -3 -2 0 0 -1 -3 -3 1 12 13 14 17 12 10 9 8 4 3 4 3 3 4 3 2 3 1 2 6 8 3 5 14 15 13 10 9 13 9 3 -0 3 9 7 4 5 5 5 3 3 3 2 2 2 2 2 4 4 4 6 8 9 7 7 8 5 5 6 7 7 6 6 6 7 8 9 11 11 11 9 7 5 5 7 8 8
5 5 4 5 5 5 8 5 5 5 2 2 -5 -1 2 -2 -0 -2 -2 8 16 13 13 14 14 11 7 8 7 6 6 5 6 5 2 1 1 1 8 12 6 1 8 16 11 8 7 8 12 8 2 1 6 9 6 4 5 5 4 3 3 3 2 2 2 3 3 4 4 3 6 9 9 7 7 7 5 5 6 6 7 5 6 6 7 8 9 11 10 11 10 7 5 5 6 8 8
3 3 4 4 5 5 7 6 5 5 1 2 -1 -3 1 -1 0 -1 4 15 16 12 9 11 14 11 7 5 3 5 5 4 5 3 1 0 -2 3 11 6 -0 4 13 13 6 5 6 8 11 7 2 4 8 8 5 4 5 5 4 3 3 2 2 2 3 3 3 3 3 3 6 9 9 7 7 7 4 5 6 6 6 5 5 6 7 7 8 11 10 10 10 7 6 5 5 7 7
1 1 2 3 5 5 6 7 5 5 -1 3 2 -5 -2 0 -0 2 12 17 14 12 8 11 13 9 8 3 3 5 3 4 3 1 2 2 1 8 9 -1 3 13 14 10 8 7 7 9 9 5 3 6 8 7 5 4 4 5 4 3 3 2 2 2 4 3 2 2 3 4 6 8 9 7 7 7 4 4 6 5 6 4 4 5 7 7 7 11 11 9 9 7 5 6 5 6 8
5 2 2 -0 3 4 5 6 3 3 -2 2 2 -5 -1 0 3 9 17 16 11 11 9 12 11 12 12 5 6 4 1 2 1 2 2 1 6 10 4 -1 8 15 13 9 9 9 8 9 8 4 6 8 7 6 5 4 5 5 3 3 2 2 3 3 3 3 2 1 2 5 5 8 9 7 6 6 4 5 5 5 6 5 3 4 6 7 6 9 11 10 9 8 5 6 6 6 7
10 8 7 3 3 2 3 3 2 2 -1 2 -0 -3 3 5 9 14 16 12 9 9 9 11 11 13 12 7 8 3 3 2 1 2 1 7 13 7 -1 1 6 10 13 10 8 9 9 10 6 5 7 7 6 6 5 4 5 4 3 3 3 3 3 3 2 2 2 1 2 5 4 6 11 8 5 5 5 4 5 6 6 5 4 3 4 7 7 6 10 12 10 8 6 5 6 5 6
13 14 13 11 9 6 4 1 -0 1 1 2 1 3 10 13 17 15 11 9 8 8 9 11 12 14 8 8 8 2 7 6 4 3 3 13 11 1 -1 2 4 8 11 9 7 8 9 8 5 6 7 6 6 5 4 4 4 3 3 2 3 2 2 2 2 3 3 2 3 5 3 5 11 9 4 5 6 5 5 6 6 6 5 3 3 4 7 6 7 11 11 9 7 5 5 5 6
11 13 15 15 15 13 11 9 8 9 8 10 15 19 20 18 17 11 8 7 7 6 9 11 13 15 8 9 7 3 9 8 5 5 6 9 3 1 1 2 8 10 9 9 7 7 9 7 7 7 6 5 5 5 4 4 4 3 3 3 2 2 2 3 2 3 4 4 4 4 2 6 12 10 5 6 7 5 6 7 7 7 6 5 4 3 5 6 6 9 12 11 7 6 5 5 5
7 8 10 12 14 15 17 17 18 17 17 22 24 20 14 11 10 7 6 5 5 5 8 11 12 14 10 9 7 6 9 7 7 9 9 7 4 4 3 5 10 9 7 8 8 8 9 8 7 7 5 6 5 4 4 4 4 4 3 3 3 2 3 3 2 4 4 4 5 2 2 8 12 9 6 8 8 6 7 7 6 5 5 5 5 3 3 5 5 6 10 12 9 6 6 6 5
5 5 6 7 9 11 13 15 15 15 17 18 13 8 5 6 6 5 5 5 6 7 8 10 11 10 8 7 8 11 11 10 10 11 11 10 10 9 9 10 10 8 7 9 8 8 9 8 8 6 5 5 5 5 4 5 4 4 4 3 3 3 3 3 3 4 4 5 3 1 4 10 12 10 9 11 9 7 6 7 5 2 2 3 4 5 3 4 5 5 7 10 10 7 6 6 6
6 6 5 5 6 7 8 9 10 10 11 9 5 5 5 5 6 5 6 7 7 8 9 10 10 9 8 6 10 13 9 6 8 11 12 12 14 14 11 10 11 10 8 8 7 8 9 8 7 6 6 6 5 5 4 5 5 5 5 4 4 4 4 4 4 4 4 4 3 3 8 12 11 10 11 12 9 6 5 5 3 -2 -1 2 4 5 4 4 4 5 5 7 9 8 6 5 6
7 7 6 5 5 6 7 7 7 6 5 5 5 4 5 6 7 6 6 6 6 7 9 9 8 8 7 5 9 10 5 5 8 10 11 11 14 12 7 7 7 6 7 8 7 8 9 7 6 6 6 5 5 5 5 5 6 6 5 5 6 6 6 4 3 4 3 4 7 8 10 12 11 9 11 12 8 6 5 4 3 -1 -0 2 5 7 6 4 4 4 5 6 7 8 7 5 6
8 8 7 7 7 7 8 9 7 6 5 4 4 5 6 7 7 6 6 5 6 6 7 7 7 6 5 5 8 6 6 9 10 10 9 10 13 11 7 4 1 2 7 8 8 9 8 7 6 5 5 5 6 5 4 5 6 7 6 5 5 5 4 4 4 3 6 10 12 9 9 11 12 7 8 13 8 7 7 6 6 4 4 4 5 8 7 5 5 5 4 5 6 6 7 6 6
7 7 8 8 9 10 10 10 8 7 7 6 6 6 7 7 6 6 5 5 5 4 5 6 6 5 5 7 7 6 8 8 8 9 10 11 14 12 7 3 2 6 8 8 8 8 8 7 6 5 5 5 5 5 5 8 10 8 5 4 3 5 7 8 8 7 10 13 11 8 9 11 13 7 4 11 10 8 10 10 9 7 8 8 8 9 8 6 5 6 5 4 5 5 6 7 6
6 7 8 9 9 11 11 10 9 8 7 7 7 8 8 6 6 6 5 5 6 4 5 6 4 5 6 6 7 8 8 7 7 10 12 12 13 11 7 6 7 8 8 8 7 7 7 7 6 5 5 6 7 7 5 8 14 11 4 5 8 11 13 13 9 9 10 10 8 7 9 10 13 9 4 11 10 7 9 7 8 7 7 9 9 10 10 10 7 6 7 5 4 5 5 6 7
6 6 8 10 10 11 11 10 9 8 7 7 7 8 7 6 6 6 6 6 5 3 4 6 5 6 5 4 4 6 8 8 8 8 10 11 10 8 6 7 6 6 8 9 8 7 7 6 6 6 6 7 8 7 1 2 11 11 8 9 12 13 11 10 9 10 10 11 11 8 9 10 12 10 9 15 6 -1 5 6 7 7 4 5 7 8 10 13 13 9 6 7 4 4 5 5 6
4 6 8 9 12 11 10 9 9 8 7 7 7 7 7 7 7 6 6 5 4 3 4 5 5 5 5 3 2 3 10 10 7 7 9 8 6 6 5 4 4 5 7 9 9 8 6 6 5 5 7 7 6 7 3 5 10 10 11 11 10 7 4 7 12 12 10 13 11 7 11 11 8 6 12 19 3 -12 -1 7 7 3 1 4 5 6 7 10 16 15 8 7 7 5 4 4 5
6 4 7 9 11 11 8 9 8 7 7 7 8 7 6 7 6 6 7 4 3 3 3 4 5 5 3 3 1 4 11 10 6 7 8 7 5 4 4 3 5 6 8 9 9 8 7 7 7 7 6 5 6 9 9 9 10 10 10 9 6 3 2 7 10 6 4 7 7 7 11 9 5 4 9 19 13 -2 -1 7 6 -0 0 4 3 4 6 6 11 16 13 8 8 7 4 4 4
12 5 6 9 10 8 9 9 6 6 7 7 7 7 6 6 6 6 6 4 4 4 4 5 6 3 1 4 4 4 9 8 8 9 7 5 4 3 3 4 6 6 7 8 8 8 7 7 8 8 6 5 6 7 8 9 10 11 10 8 7 6 7 9 5 1 2 5 7 8 10 7 5 6 6 14 19 10 4 6 5 -1 0 3 3 3 4 5 6 10 14 11 9 8 7 5 3
18 11 7 8 9 8 9 8 4 6 7 7 7 7 6 7 6 4 4 5 6 6 5 4 4 2 2 8 8 5 7 7 8 12 12 7 2 2 3 5 6 4 5 7 9 9 8 8 5 4 6 8 10 9 8 9 10 11 10 9 8 7 9 9 6 5 7 9 9 10 10 9 8 7 6 8 11 9 6 6 4 0 2 4 4 3 3 5 6 6 9 13 12 8 7 7 6
22 17 9 6 8 9 8 6 6 7 6 6 7 7 6 6 5 4 5 5 5 3 2 3 3 4 5 7 6 4 8 8 5 8 12 10 5 3 4 5 5 4 4 5 8 9 9 11 9 6 9 10 10 10 7 6 7 8 6 4 4 5 7 8 8 9 12 12 12 11 9 8 8 7 7 7 6 6 5 4 3 3 5 6 4 4 3 3 5 5 6 9 13 12 7 5 7
21 20 14 8 7 8 8 7 7 7 6 6 6 7 5 4 5 5 6 6 3 1 1 4 5 6 7 5 6 5 7 10 5 5 5 3 3 2 3 5 5 5 6 6 6 8 8 9 10 7 7 8 8 7 6 5 6 5 2 1 3 4 6 7 9 11 12 13 13 11 8 6 6 6 6 6 6 6 5 4 5 6 6 6 5 4 5 4 3 5 6 7 10 14 13 6 4
20 21 16 10 7 7 8 8 7 8 6 5 6 7 5 3 5 5 5 4 3 2 2 6 6 7 8 7 8 4 5 11 8 4 4 2 3 5 5 4 4 5 4 6 8 7 5 6 8 6 4 8 9 7 7 6 5 4 1 1 3 4 5 6 9 11 10 11 11 10 9 6 6 7 6 6 7 6 5 5 5 5 5 5 5 5 5 6 6 4 5 7 7 10 15 15 9
18 23 16 8 7 6 6 7 8 8 5 5 6 6 5 4 5 5 5 5 3 3 3 7 7 7 9 7 5 2 6 13 8 6 7 7 8 9 8 3 3 4 3 6 12 12 7 5 7 8 8 8 8 7 7 5 5 3 1 2 4 4 4 7 10 10 8 9 11 11 9 7 6 7 6 7 6 5 4 4 4 4 5 5 4 5 5 6 7 6 4 6 8 8 10 17 19
14 24 16 5 6 5 6 8 8 7 5 6 7 6 5 5 6 5 5 7 5 4 6 7 8 9 9 6 4 5 12 15 11 9 7 6 9 7 4 2 1 3 6 4 5 14 14 7 7 9 10 8 7 7 7 5 4 2 2 3 4 3 4 8 10 9 8 10 12 11 8 7 7 6 7 8 7 5 4 4 6 6 6 6 5 5 6 7 7 7 6 6 8 9 9 11 19
9 21 18 6 5 6 6 9 8 8 7 6 7 6 5 5 7 6 6 9 7 6 6 6 10 11 9 10 10 10 13 14 12 11 8 4 5 7 3 3 6 4 8 5 -2 9 17 8 7 9 9 7 8 9 6 4 3 2 4 4 2 2 3 7 9 10 11 13 13 11 8 8 8 7 7 7 6 5 5 7 8 8 8 7 8 8 8 8 7 7 7 7 7 7 10 9 12
6 21 24 8 4 6 5 9 10 9 7 6 6 6 5 6 7 7 7 7 6 10 10 9 11 9 10 13 10 11 12 7 7 8 9 7 4 10 11 6 7 4 4 8 6 11 15 9 6 9 8 7 8 9 6 4 4 4 5 4 2 1 3 6 8 12 14 13 9 7 6 6 7 8 7 6 7 8 9 9 8 7 8 8 9 9 8 7 7 6 5 6 8 7 9 11 9
5 19 25 10 5 7 4 7 9 9 7 6 7 6 7 9 8 9 9 7 8 14 16 13 9 7 15 19 9 8 8 8 18 19 11 3 -2 7 16 11 7 6 6 8 10 12 14 11 8 8 9 9 10 8 5 5 5 5 4 4 2 1 3 6 9 13 13 8 5 5 7 9 11 12 10 9 9 10 8 6 6 6 7 7 8 8 8 8 6 6 6 5 7 8 8 11 10
4 14 21 12 7 7 6 6 7 8 6 7 9 6 8 10 9 9 8 7 7 10 11 13 12 5 15 28 17 6 4 3 11 18 13 1 -7 -4 6 12 10 9 11 9 9 11 12 11 9 9 9 9 9 6 5 6 5 5 4 2 1 0 2 5 8 11 10 5 5 9 11 12 12 11 9 8 8 7 6 4 6 7 6 6 6 6 6 7 8 8 9 9 8 9 8 9 11
4 10 16 13 10 7 7 8 6 7 5 5 8 7 9 8 8 10 8 5 6 8 6 8 11 3 8 18 9 8 12 -4 -14 -1 10 5 -2 -3 -0 8 9 8 8 6 7 8 9 10 8 9 9 8 7 7 7 7 5 4 3 2 1 0 2 3 5 9 9 6 8 11 11 8 6 6 6 8 8 7 6 7 8 8 7 6 5 6 6 6 7 9 8 7 7 9 9 8 10
4 8 10 14 15 7 5 8 7 7 4 3 4 6 8 7 9 9 5 3 4 8 9 9 9 4 7 9 11 35 39 6 -6 6 9 6 6 2 3 8 10 8 6 5 6 6 7 10 9 9 9 10 9 9 8 7 6 4 2 2 1 1 3 2 2 7 8 7 7 9 7 2 -2 -2 -1 2 6 9 7 8 9 8 7 6 6 6 7 7 7 9 8 7 7 7 8 8 8
4 6 7 15 19 7 3 7 8 8 5 4 4 5 6 7 9 6 4 8 7 6 7 9 7 1 5 11 13 30 34 13 8 15 10 9 11 4 2 8 11 10 5 4 7 6 5 7 10 11 10 11 10 8 7 7 6 5 3 3 2 3 2 1 2 5 7 7 6 7 7 3 -2 -5 -4 -3 0 6 7 7 7 6 7 7 8 7 6 7 6 7 8 8 8 7 9 8 7
4 5 5 13 18 9 3 4 7 9 7 6 6 6 7 8 7 1 1 8 9 8 8 8 10 8 4 5 -10 -30 -15 8 10 12 14 12 12 8 7 8 9 7 -1 -2 4 6 5 4 8 11 10 8 7 6 6 7 6 5 4 4 4 3 1 1 2 4 7 9 7 6 8 9 8 5 5 3 0 3 7 7 6 6 8 8 8 8 6 6 5 6 7 7 7 8 9 8 7
5 6 5 11 16 12 6 2 4 8 8 8 7 5 6 9 7 2 0 2 4 7 9 6 4 7 4 2 -6 -33 -26 7 11 10 14 9 7 9 11 10 8 2 -6 -5 2 6 7 5 7 11 10 7 6 6 6 6 6 5 5 5 5 3 1 2 1 2 6 8 7 6 7 10 12 12 12 8 3 5 7 6 6 6 7 7 7 7 6 7 6 5 5 4 5 6 6 5 6
5 6 6 10 15 14 9 3 2 7 11 12 11 8 6 8 6 4 6 5 5 5 11 19 9 6 12 10 8 1 1 11 13 14 13 9 8 7 8 10 7 4 -0 1 6 8 8 7 9 11 10 7 5 4 3 4 5 5 6 6 6 4 3 3 1 1 3 6 6 6 7 8 10 11 11 9 6 7 8 6 6 6 6 6 6 5 5 6 6 5 5 5 6 7 8 6 3
5 5 5 7 13 14 9 5 4 6 13 16 13 12 10 9 3 3 8 5 5 4 9 33 28 8 16 18 5 5 13 15 12 13 13 11 11 10 11 9 8 8 6 7 9 10 9 7 8 8 8 6 3 2 2 4 5 5 6 6 6 6 4 3 2 1 1 3 5 5 7 7 8 9 9 8 7 6 6 5 5 5 5 5 5 6 6 6 6 6 8 8 8 8 10 9 5
5 5 5 6 11 14 8 6 7 5 12 14 10 11 11 9 4 4 9 5 4 3 4 24 25 12 24 25 8 3 7 10 8 6 7 10 10 9 9 8 8 8 7 8 7 7 8 7 6 5 5 7 8 8 5 4 5 5 5 6 6 6 5 4 3 2 2 3 4 5 7 7 7 7 6 5 5 4 4 4 4 4 4 4 5 7 7 6 6 8 9 9 9 8 8 8 8
4 5 6 5 10 14 8 6 8 7 9 9 6 8 8 8 6 5 8 8 6 4 7 15 14 15 17 4 -1 4 2 3 6 6 5 7 10 9 7 6 6 6 6 7 6 5 5 5 5 4 4 8 10 10 5 4 6 7 6 6 7 7 6 6 4 3 3 3 4 5 6 7 7 6 6 5 5 5 5 5 5 5 5 5 6 7 7 6 7 9 9 7 7 7 7 7 8
4 5 6 6 9 12 10 6 7 8 9 8 6 6 5 5 6 6 6 8 9 4 4 10 9 8 1 -7 5 12 5 7 9 8 6 5 10 11 9 8 6 7 7 5 7 8 6 5 6 5 4 7 8 7 6 7 7 7 7 7 7 7 6 6 6 4 4 4 5 6 6 7 7 7 7 6 6 6 6 7 6 6 5 6 7 7 7 8 9 10 9 7 7 7 7 8 8
4 5 5 6 9 11 10 7 6 7 8 9 7 6 5 3 3 6 5 5 8 8 6 7 5 6 8 13 23 15 3 11 11 3 4 6 11 12 11 11 8 8 9 8 8 8 9 8 7 6 7 9 8 7 7 7 6 6 6 6 6 7 6 6 6 6 5 5 5 6 6 6 7 7 7 7 8 8 8 8 7 5 6 8 8 8 9 10 11 11 10 9 10 8 8 10 10
5 6 4 5 8 10 10 7 8 7 6 7 6 7 5 4 5 4 4 5 6 9 10 11 7 10 19 11 4 6 5 10 8 1 4 6 8 10 10 12 11 10 11 10 9 9 10 8 7 8 9 9 6 4 5 4 5 5 5 6 6 6 6 6 7 7 6 5 5 6 6 6 6 7 7 8 8 9 9 8 7 6 8 9 8 8 9 11 12 13 12 11 11 10 10 11 12
5 5 5 6 7 10 9 6 7 6 7 8 6 6 5 4 6 3 4 4 7 9 4 10 10 8 24 13 -6 4 10 7 4 0 6 7 3 7 11 14 14 11 11 10 9 9 8 7 6 5 4 4 4 5 8 8 7 7 6 7 7 6 7 7 7 7 6 6 6 7 6 6 7 7 7 8 8 8 8 7 7 8 9 8 7 8 9 12 13 13 13 12 11 11 10 10 11
5 5 7 8 8 11 10 5 6 6 8 9 5 5 4 4 5 4 7 4 6 10 2 9 9 2 23 17 -7 1 5 5 8 2 7 10 3 3 6 12 17 12 11 12 10 7 7 8 6 5 5 7 9 10 10 9 7 7 7 7 7 7 7 7 7 7 7 7 8 7 6 6 7 7 7 7 7 8 7 8 9 9 9 8 7 8 9 11 12 13 12 12 10 9 9 8 8
4 5 8 10 9 11 10 7 7 7 9 8 6 6 3 5 6 2 6 6 5 7 6 9 4 4 16 -1 -13 2 -0 3 11 3 7 11 5 4 3 7 11 10 10 11 11 9 8 8 6 5 7 8 10 8 7 7 6 6 6 7 7 8 8 7 8 8 8 8 8 8 7 6 6 5 6 6 6 6 6 7 8 9 9 8 7 8 9 10 11 11 10 9 9 8 8 8 8
5 7 9 9 10 10 8 6 7 8 7 5 6 7 2 4 7 3 3 6 6 6 9 8 1 8 12 -1 6 8 -9 -0 9 0 5 11 9 8 3 3 5 7 8 7 9 10 8 9 6 5 6 8 8 7 6 7 6 6 6 6 7 7 8 8 8 8 8 8 8 8 7 6 6 4 4 5 5 5 5 6 7 8 8 8 7 8 9 10 10 9 9 7 7 7 7 8 8
5 9 11 9 10 10 8 7 8 9 8 6 6 6 4 3 4 6 3 4 8 9 10 8 5 12 8 6 17 -0 -15 10 15 2 6 6 7 9 2 1 2 3 6 4 5 6 7 10 9 6 6 6 7 5 5 5 4 5 5 6 7 7 7 7 6 7 7 7 7 7 7 6 5 5 4 4 4 4 4 5 6 7 9 8 8 8 8 9 9 8 8 7 7 8 8 9 9
6 9 11 10 9 10 9 8 7 6 5 7 8 4 4 4 3 5 5 3 7 8 8 6 4 10 2 -2 11 2 -5 8 1 -2 9 4 2 8 5 4 2 3 5 4 2 1 2 5 6 6 5 5 5 4 5 5 5 6 6 6 7 6 6 6 6 7 6 7 7 8 8 8 7 7 6 5 4 5 5 5 5 6 8 9 8 7 8 8 9 8 7 8 8 8 8 9 10
5 8 8 7 7 7 5 3 2 4 4 7 9 4 2 3 3 5 4 4 6 6 9 7 4 10 4 -1 14 12 -1 0 1 6 16 14 6 4 6 8 6 6 6 6 5 1 1 1 1 3 3 3 4 4 6 6 6 7 6 7 6 5 6 6 7 7 7 8 8 8 9 9 8 8 7 6 5 5 5 5 5 5 7 8 8 8 7 8 9 8 7 7 6 6 6 7 7
4 5 6 5 2 1 1 3 4 5 6 6 7 5 1 1 4 5 5 4 5 5 7 8 7 10 4 -1 10 10 0 10 17 8 6 12 9 2 3 6 9 11 9 8 9 6 4 3 1 1 2 3 5 6 8 8 9 8 6 6 6 6 6 6 7 7 7 8 7 8 9 9 10 9 8 7 6 6 6 6 6 6 6 6 8 9 8 8 8 8 6 5 5 4 4 4 4
11 9 10 8 5 7 9 8 7 6 5 6 7 3 -1 2 3 4 7 5 5 6 7 9 7 4 -0 -6 -3 5 11 18 15 1 -1 4 4 0 -2 3 13 17 12 10 10 10 8 5 4 3 3 4 5 6 7 7 7 6 6 6 6 6 6 5 6 6 6 7 7 7 8 9 10 10 9 8 7 7 6 6 7 6 6 6 7 8 9 9 9 8 7 5 4 4 4 4 4
13 11 8 6 10 15 13 8 8 8 6 5 5 1 -0 4 3 3 9 6 5 7 7 9 6 2 5 5 5 7 8 10 6 -2 -1 1 2 3 -1 1 13 17 14 10 8 10 11 11 8 5 3 3 5 5 5 4 4 5 5 6 5 5 5 5 5 5 5 6 6 7 6 6 7 8 10 9 8 8 7 7 7 7 7 6 7 8 9 10 10 9 8 5 4 4 3 4 4
9 10 7 9 15 12 6 7 8 7 6 4 3 3 2 5 4 5 8 7 6 7 5 6 5 5 9 11 17 13 -4 -9 -7 -11 -5 2 4 6 4 2 8 12 13 11 8 9 12 12 8 1 0 4 6 6 5 4 5 5 5 5 5 5 5 5 5 5 5 5 6 7 6 5 6 7 9 10 10 9 8 7 7 7 7 7 7 8 8 10 11 10 9 7 4 3 3 2 2
9 9 9 13 13 6 4 8 6 3 2 2 3 4 4 4 4 7 10 7 5 5 5 5 0 2 8 5 10 14 5 3 -0 -9 -4 3 4 9 10 7 8 10 11 11 8 8 8 8 5 2 5 8 9 7 6 5 5 4 5 4 4 4 4 5 5 5 5 5 5 7 7 6 6 5 6 8 10 10 9 8 7 7 7 7 7 8 8 9 10 11 11 9 6 4 3 2 1
11 13 12 11 6 4 6 4 1 2 1 0 4 4 4 6 5 6 8 6 6 3 3 6 2 4 12 6 1 4 6 10 5 -4 -3 1 4 9 9 8 12 13 12 13 11 8 7 8 8 8 8 7 7 7 5 5 6 5 4 3 3 4 4 4 5 5 6 5 5 6 6 7 6 5 4 4 6 8 8 7 6 6 7 7 7 8 9 9 8 10 11 11 9 6 4 3 2
6 8 10 9 6 8 9 3 2 5 1 -0 4 4 6 9 5 2 3 5 8 4 -0 4 8 12 13 7 3 3 3 6 3 -2 -1 2 5 8 6 7 12 14 13 13 11 8 8 9 9 12 13 8 6 6 5 4 4 4 4 5 5 6 6 6 6 5 4 5 6 7 7 8 7 7 6 6 7 7 8 7 6 5 6 6 6 7 7 8 8 9 11 11 11 10 7 4 3
5 3 7 8 7 8 10 8 5 5 4 3 3 4 9 11 6 3 3 3 3 4 4 7 9 10 8 3 2 3 3 5 2 -3 -1 2 5 6 5 4 6 12 13 9 8 7 7 7 6 13 23 21 12 8 7 5 5 6 7 6 6 5 5 4 3 3 4 5 7 8 9 9 9 8 8 8 8 8 8 8 7 7 7 7 7 7 6 6 7 8 9 10 11 11 10 7 5
13 10 10 10 9 7 7 8 6 5 6 5 3 4 7 8 6 5 5 4 2 3 7 10 8 5 2 3 4 2 3 3 -0 -3 1 5 5 4 4 5 4 7 9 10 12 10 8 8 7 8 17 20 16 12 10 8 8 10 8 5 4 3 3 3 4 4 5 5 8 9 9 9 9 9 9 10 10 9 7 6 6 6 8 8 8 8 7 6 6 7 7 9 10 10 11 10 8
Height
5849 5850 5851 5852 5853 5855 5856 5858 5858 5859 5861 5861 5863 5865 5867 5868 5868 5867 5868 5867 5865 5865 5866 5867 5866 5866 5867 5868 5868 5869 5869 5869 5869 5869 5869 5870 5870 5871 5872 5873 5873 5872 5872 5872 5872 5872 5871 5871 5870 5870 5871 5870 5870 5870 5869 5869 5869 5869 5869 5868 5868 5867 5867 5866 5866 5865 5865 5864 5864 5862 5861 5860 5859 5857 5856 5856 5855 5854 5852 5851 5850 5849 5847 5847 5846 5845 5844 5843 5843 5842 5841 5841 5841 5840 5839 5839 5839
5846 5847 5849 5850 5851 5852 5853 5855 5855 5856 5858 5859 5862 5864 5865 5866 5864 5863 5864 5864 5864 5862 5863 5864 5864 5864 5865 5866 5867 5867 5867 5867 5867 5867 5868 5868 5869 5870 5871 5871 5872 5871 5871 5871 5871 5870 5870 5869 5869 5870 5870 5870 5869 5869 5869 5869 5869 5869 5869 5868 5867 5867 5866 5865 5865 5865 5865 5864 5863 5862 5861 5860 5859 5857 5857 5856 5855 5854 5853 5851 5850 5849 5848 5847 5846 5845 5844 5844 5843 5842 5842 5841 5841 5840 5840 5839 5839
5844 5845 5846 5847 5849 5850 5851 5852 5853 5854 5855 5857 5861 5863 5863 5862 5860 5859 5861 5862 5862 5860 5860 5862 5862 5861 5862 5863 5864 5865 5865 5865 5865 5866 5866 5867 5868 5869 5870 5870 5871 5870 5870 5870 5869 5869 5868 5868 5868 5869 5869 5869 5868 5868 5868 5868 5868 5869 5869 5868 5867 5866 5865 5865 5865 5864 5864 5864 5863 5862 5861 5860 5859 5857 5857 5856 5855 5854 5853 5851 5850 5849 5848 5847 5847 5846 5845 5844 5843 5843 5842 5842 5841 5841 5840 5840 5839
5842 5843 5844 5845 5846 5847 5848 5849 5851 5851 5853 5856 5859 5862 5860 5858 5856 5857 5858 5859 5859 5858 5858 5859 5860 5859 5860 5861 5862 5863 5863 5863 5863 5864 5865 5865 5866 5868 5869 5869 5869 5869 5868 5868 5868 5867 5867 5867 5867 5868 5868 5868 5868 5868 5868 5868 5868 5868 5868 5868 5867 5865 5865 5864 5864 5864 5863 5863 5863 5862 5861 5860 5858 5857 5857 5856 5855 5854 5853 5852 5851 5850 5849 5848 5847 5846 5845 5844 5844 5843 5843 5842 5841 5841 5840 5840 5840
5839 5840 5841 5843 5843 5844 5845 5846 5848 5850 5853 5855 5856 5859 5857 5854 5854 5855 5856 5857 5857 5857 5856 5857 5858 5858 5858 5859 5860 5861 5861 5861 5862 5863 5864 5864 5866 5867 5867 5867 5867 5867 5866 5866 5866 5866 5866 5866 5867 5867 5867 5867 5867 5867 5867 5867 5868 5868 5868 5867 5866 5865 5864 5864 5863 5863 5862 5862 5862 5862 5861 5859 5858 5857 5856 5856 5855 5854 5853 5852 5851 5850 5849 5848 5847 5847 5846 5845 5844 5844 5843 5842 5842 5841 5841 5840 5840
5836 5837 5838 5840 5840 5841 5842 5843 5846 5849 5852 5853 5853 5856 5853 5851 5852 5852 5854 5855 5855 5855 5854 5855 5856 5856 5857 5858 5859 5859 5859 5860 5861 5862 5863 5864 5865 5865 5866 5866 5865 5864 5864 5864 5864 5865 5865 5865 5865 5866 5865 5866 5866 5866 5867 5867 5868 5868 5867 5866 5865 5864 5864 5863 5862 5862 5862 5862 5862 5861 5860 5859 5858 5857 5856 5856 5855 5854 5853 5852 5851 5850 5849 5848 5848 5847 5846 5845 5844 5844 5843 5843 5842 5842 5841 5841 5840
5832 5834 5835 5836 5837 5838 5839 5841 5845 5847 5850 5850 5850 5852 5849 5849 5850 5849 5851 5852 5853 5853 5852 5853 5854 5855 5856 5857 5857 5858 5858 5858 5859 5860 5862 5863 5863 5863 5863 5864 5863 5862 5862 5862 5863 5863 5864 5864 5864 5864 5864 5865 5865 5866 5866 5867 5867 5867 5866 5865 5864 5864 5863 5862 5862 5861 5861 5861 5861 5860 5859 5858 5858 5857 5856 5855 5855 5854 5853 5852 5851 5850 5849 5849 5848 5847 5846 5845 5845 5844 5843 5843 5842 5842 5841 5841 5840
5829 5830 5832 5833 5834 5836 5837 5840 5843 5844 5846 5847 5848 5848 5845 5847 5848 5847 5849 5850 5851 5851 5850 5852 5853 5853 5854 5855 5856 5856 5857 5857 5858 5859 5860 5861 5861 5861 5861 5861 5861 5861 5861 5861 5861 5862 5862 5862 5863 5863 5864 5864 5865 5866 5866 5866 5866 5865 5865 5864 5863 5863 5862 5862 5861 5861 5860 5860 5860 5859 5858 5858 5857 5856 5855 5855 5854 5853 5852 5852 5851 5850 5849 5849 5848 5847 5846 5845 5845 5844 5843 5843 5843 5842 5842 5841 5841
5826 5827 5829 5830 5831 5833 5835 5838 5840 5841 5842 5843 5845 5844 5843 5844 5845 5844 5846 5848 5849 5849 5849 5850 5851 5852 5852 5853 5854 5855 5856 5856 5857 5858 5858 5859 5859 5859 5859 5859 5859 5859 5859 5860 5860 5860 5861 5861 5862 5863 5863 5864 5865 5865 5865 5865 5865 5864 5864 5863 5863 5862 5862 5861 5861 5860 5860 5859 5859 5858 5858 5857 5856 5855 5854 5854 5854 5853 5852 5852 5851 5850 5849 5849 5848 5847 5846 5845 5845 5844 5844 5843 5843 5842 5842 5842 5841
5823 5824 5826 5827 5829 5831 5833 5835 5836 5837 5839 5841 5841 5840 5839 5840 5841 5841 5843 5845 5846 5847 5848 5849 5850 5851 5851 5852 5853 5854 5855 5855 5855 5856 5856 5857 5857 5858 5858 5858 5858 5858 5858 5858 5859 5859 5860 5861 5862 5862 5863 5863 5864 5864 5864 5864 5864 5864 5863 5863 5862 5862 5861 5860 5860 5859 5859 5858 5858 5857 5857 5856 5856 5854 5854 5853 5853 5853 5852 5851 5850 5849 5849 5848 5848 5847 5846 5845 5845 5844 5844 5843 5843 5842 5842 5842 5841
5820 5822 5823 5825 5827 5829 5831 5832 5833 5835 5836 5838 5837 5836 5836 5838 5839 5840 5841 5843 5845 5846 5847 5848 5848 5849 5850 5850 5852 5853 5854 5854 5853 5854 5854 5855 5855 5856 5856 5856 5856 5856 5856 5857 5858 5859 5859 5860 5861 5862 5862 5863 5863 5864 5864 5864 5864 5863 5863 5862 5862 5861 5860 5860 5859 5858 5858 5857 5857 5856 5856 5855 5855 5854 5853 5852 5852 5852 5851 5851 5850 5849 5848 5848 5847 5846 5845 5845 5844 5844 5844 5843 5843 5842 5842 5842 5841
5817 5819 5820 5822 5825 5827 5828 5830 5831 5832 5833 5834 5833 5834 5835 5836 5838 5839 5840 5841 5843 5845 5845 5846 5847 5847 5848 5849 5850 5852 5852 5852 5851 5852 5853 5853 5853 5853 5853 5854 5854 5854 5855 5856 5857 5858 5859 5860 5861 5862 5862 5863 5863 5864 5864 5863 5863 5862 5862 5862 5861 5860 5860 5859 5858 5857 5857 5856 5855 5855 5855 5854 5854 5853 5852 5851 5851 5851 5850 5850 5850 5849 5848 5848 5847 5846 5845 5844 5844 5844 5843 5843 5842 5842 5842 5842 5841
5813 5816 5817 5819 5822 5824 5826 5827 5828 5829 5830 5830 5831 5832 5833 5835 5836 5837 5838 5839 5841 5842 5843 5844 5845 5846 5846 5847 5848 5850 5850 5850 5850 5851 5851 5851 5850 5851 5851 5852 5852 5853 5855 5856 5857 5858 5859 5860 5861 5861 5862 5863 5863 5863 5863 5862 5862 5861 5861 5861 5860 5860 5859 5857 5857 5856 5856 5855 5854 5854 5854 5853 5853 5852 5851 5851 5850 5850 5849 5849 5849 5848 5848 5847 5847 5846 5845 5844 5843 5843 5843 5843 5842 5841 5841 5841 5841
5810 5812 5814 5816 5819 5821 5824 5825 5825 5826 5827 5828 5829 5830 5831 5833 5835 5835 5836 5837 5839 5840 5841 5842 5843 5844 5845 5845 5847 5848 5848 5848 5848 5849 5849 5849 5849 5849 5849 5850 5852 5853 5854 5855 5856 5858 5859 5860 5860 5861 5861 5862 5862 5862 5862 5861 5861 5860 5860 5860 5859 5858 5857 5856 5856 5855 5855 5854 5853 5853 5852 5852 5852 5851 5850 5850 5849 5849 5848 5848 5848 5847 5847 5846 5846 5845 5845 5844 5843 5842 5843 5842 5842 5841 5841 5840 5840
5807 5809 5811 5814 5817 5819 5821 5822 5822 5823 5824 5825 5827 5828 5829 5831 5832 5833 5833 5835 5836 5837 5838 5840 5841 5842 5843 5844 5845 5845 5845 5846 5846 5847 5847 5847 5847 5848 5848 5850 5851 5852 5853 5855 5856 5857 5858 5859 5860 5860 5861 5861 5861 5861 5860 5860 5859 5859 5859 5858 5857 5856 5856 5855 5854 5854 5854 5853 5852 5852 5851 5851 5851 5850 5850 5849 5848 5848 5847 5847 5846 5846 5846 5846 5845 5844 5844 5843 5842 5842 5842 5842 5841 5841 5840 5840 5840
5803 5806 5809 5811 5814 5816 5818 5818 5819 5820 5821 5823 5824 5826 5827 5829 5830 5831 5831 5832 5834 5835 5837 5838 5839 5840 5841 5842 5843 5843 5843 5844 5844 5845 5845 5846 5846 5847 5848 5849 5850 5852 5853 5854 5855 5856 5857 5858 5859 5859 5860 5860 5860 5860 5859 5858 5858 5857 5857 5856 5856 5855 5854 5854 5853 5853 5853 5852 5851 5850 5850 5850 5849 5849 5849 5848 5848 5847 5847 5846 5846 5845 5845 5845 5844 5844 5843 5842 5841 5841 5841 5841 5841 5840 5839 5839 5839
5801 5803 5806 5809 5812 5814 5815 5815 5815 5816 5818 5820 5822 5823 5825 5826 5828 5829 5829 5830 5831 5833 5834 5835 5837 5839 5839 5840 5841 5841 5842 5842 5842 5843 5844 5845 5845 5846 5847 5848 5850 5851 5852 5853 5855 5856 5857 5857 5858 5859 5859 5859 5859 5858 5858 5857 5856 5856 5855 5855 5854 5853 5853 5853 5852 5852 5852 5851 5850 5849 5848 5848 5848 5848 5848 5848 5847 5847 5846 5846 5845 5844 5844 5844 5843 5843 5842 5841 5841 5840 5840 5840 5840 5840 5839 5838 5838
5798 5801 5804 5807 5809 5811 5811 5811 5812 5813 5815 5817 5819 5820 5822 5824 5825 5826 5827 5828 5829 5830 5832 5834 5835 5836 5837 5838 5839 5840 5840 5841 5841 5842 5843 5844 5845 5846 5847 5848 5849 5850 5851 5852 5853 5854 5855 5856 5857 5858 5858 5858 5858 5857 5857 5856 5855 5854 5854 5853 5853 5852 5852 5852 5851 5851 5850 5850 5849 5849 5848 5847 5847 5847 5846 5847 5847 5846 5846 5845 5844 5844 5843 5843 5842 5842 5841 5841 5840 5839 5839 5839 5839 5839 5838 5837 5837
5794 5798 5801 5804 5806 5807 5808 5808 5808 5810 5812 5814 5816 5817 5819 5820 5822 5824 5825 5826 5827 5828 5830 5832 5833 5834 5835 5836 5838 5838 5839 5839 5840 5842 5843 5843 5844 5845 5845 5846 5847 5848 5849 5850 5852 5853 5854 5855 5855 5856 5856 5856 5856 5856 5855 5855 5854 5853 5853 5852 5852 5851 5851 5851 5850 5850 5849 5849 5849 5848 5847 5846 5846 5846 5845 5845 5845 5845 5845 5844 5844 5843 5842 5842 5841 5841 5840 5840 5839 5838 5838 5838 5838 5838 5837 5836 5835
5791 5795 5799 5802 5803 5803 5805 5805 5805 5807 5809 5811 5813 5814 5816 5817 5819 5822 5823 5824 5825 5826 5828 5830 5831 5832 5834 5834 5836 5837 5837 5838 5839 5841 5842 5842 5843 5843 5844 5845 5846 5847 5848 5849 5850 5851 5852 5853 5854 5854 5854 5854 5854 5854 5854 5854 5853 5853 5852 5851 5851 5851 5850 5850 5849 5849 5849 5848 5848 5847 5847 5846 5845 5845 5845 5844 5844 5844 5844 5844 5843 5842 5841 5841 5840 5840 5839 5839 5838 5838 5837 5837 5837 5837 5836 5835 5834
5788 5792 5797 5799 5799 5800 5801 5801 5803 5805 5806 5808 5810 5811 5813 5815 5817 5819 5821 5822 5823 5824 5826 5828 5829 5831 5832 5833 5834 5835 5835 5836 5838 5839 5840 5841 5841 5842 5843 5844 5844 5845 5846 5848 5849 5850 5851 5852 5852 5853 5852 5853 5853 5853 5853 5852 5852 5852 5851 5851 5850 5850 5849 5849 5849 5848 5848 5848 5847 5847 5846 5846 5845 5844 5844 5843 5843 5843 5843 5843 5842 5841 5840 5840 5839 5839 5838 5838 5837 5837 5836 5836 5836 5836 5836 5834 5833
5785 5789 5793 5795 5796 5798 5798 5799 5801 5802 5803 5805 5807 5809 5810 5812 5815 5817 5818 5820 5821 5822 5824 5826 5828 5829 5830 5831 5832 5833 5834 5835 5836 5838 5838 5839 5839 5840 5841 5842 5843 5844 5845 5846 5848 5849 5850 5850 5851 5851 5851 5851 5851 5851 5851 5851 5851 5851 5851 5850 5850 5849 5849 5848 5848 5847 5847 5847 5846 5846 5846 5845 5844 5844 5843 5842 5842 5842 5842 5842 5841 5840 5839 5839 5838 5838 5837 5837 5836 5835 5835 5834 5834 5835 5835 5834 5832
5782 5786 5790 5792 5793 5795 5795 5796 5798 5800 5801 5802 5804 5806 5807 5810 5813 5815 5817 5818 5819 5821 5823 5825 5827 5827 5828 5829 5830 5831 5832 5833 5834 5836 5836 5837 5838 5839 5840 5841 5842 5843 5844 5845 5846 5847 5848 5849 5849 5849 5850 5850 5850 5850 5850 5850 5850 5850 5850 5850 5849 5848 5848 5847 5847 5847 5846 5846 5845 5845 5845 5845 5844 5843 5843 5842 5841 5841 5841 5841 5840 5839 5838 5838 5837 5837 5836 5835 5835 5834 5834 5833 5833 5833 5833 5833 5832
5779 5783 5787 5789 5790 5792 5793 5794 5796 5797 5798 5800 5802 5804 5805 5808 5811 5813 5815 5816 5817 5820 5822 5824 5825 5826 5826 5827 5828 5828 5829 5831 5832 5833 5834 5835 5836 5837 5838 5839 5841 5842 5843 5844 5845 5846 5847 5847 5848 5848 5848 5848 5848 5848 5849 5849 5849 5849 5849 5849 5848 5848 5847 5847 5846 5846 5845 5844 5844 5844 5844 5844 5844 5843 5842 5841 5841 5840 5840 5839 5839 5838 5837 5837 5836 5836 5835 5834 5834 5833 5833 5832 5831 5831 5831 5831 5831
5777 5780 5783 5785 5787 5788 5789 5791 5793 5794 5795 5798 5800 5802 5804 5807 5809 5811 5813 5814 5816 5819 5821 5823 5824 5824 5825 5825 5825 5826 5827 5828 5830 5831 5833 5834 5835 5836 5837 5838 5839 5840 5841 5842 5843 5844 5845 5846 5846 5846 5847 5847 5847 5848 5848 5848 5848 5849 5849 5848 5848 5847 5846 5846 5845 5845 5844 5844 5843 5843 5843 5843 5843 5842 5842 5841 5840 5840 5839 5838 5838 5837 5836 5835 5835 5834 5834 5833 5833 5832 5831 5831 5830 5829 5829 5829 5829
5775 5777 5779 5781 5783 5784 5787 5790 5791 5792 5794 5796 5798 5800 5802 5805 5808 5810 5811 5813 5815 5818 5820 5822 5823 5823 5823 5823 5823 5824 5825 5826 5828 5829 5831 5832 5833 5834 5835 5837 5838 5839 5840 5841 5842 5842 5843 5844 5845 5845 5845 5846 5846 5847 5847 5847 5847 5848 5848 5847 5847 5846 5846 5845 5845 5844 5843 5843 5843 5843 5842 5842 5842 5841 5841 5841 5840 5839 5838 5837 5837 5836 5835 5834 5833 5833 5832 5832 5832 5831 5830 5829 5828 5828 5827 5827 5827
5772 5774 5776 5778 5779 5782 5785 5789 5790 5791 5792 5794 5796 5798 5801 5804 5807 5809 5811 5813 5815 5817 5818 5820 5821 5821 5821 5821 5820 5821 5822 5824 5825 5827 5828 5829 5830 5832 5833 5835 5836 5837 5838 5839 5840 5841 5842 5842 5843 5844 5844 5844 5845 5845 5846 5846 5846 5847 5846 5846 5846 5845 5845 5844 5844 5843 5843 5842 5842 5842 5841 5841 5841 5840 5840 5840 5839 5839 5838 5837 5836 5835 5834 5833 5832 5832 5831 5831 5830 5829 5829 5828 5827 5826 5826 5825 5825
5770 5772 5774 5776 5777 5780 5784 5787 5788 5790 5791 5793 5795 5796 5800 5803 5806 5808 5809 5811 5813 5815 5817 5818 5819 5819 5818 5816 5816 5818 5820 5822 5823 5824 5826 5827 5828 5830 5831 5833 5834 5835 5836 5837 5838 5839 5840 5841 5842 5842 5842 5843 5844 5844 5845 5845 5845 5845 5845 5845 5845 5844 5844 5843 5843 5842 5842 5841 5841 5841 5841 5840 5840 5839 5839 5839 5838 5838 5837 5836 5835 5834 5833 5832 5832 5831 5830 5830 5829 5828 5827 5826 5825 5825 5824 5824 5823
5768 5770 5772 5773 5775 5778 5783 5785 5787 5788 5789 5791 5793 5796 5799 5802 5804 5806 5807 5809 5811 5813 5815 5816 5816 5816 5815 5813 5813 5816 5819 5821 5822 5822 5823 5825 5826 5828 5829 5830 5832 5833 5834 5836 5837 5837 5838 5839 5840 5841 5841 5842 5842 5843 5844 5844 5844 5844 5844 5844 5844 5843 5843 5842 5842 5841 5841 5841 5841 5840 5840 5839 5839 5838 5838 5837 5837 5837 5836 5836 5835 5834 5833 5832 5831 5830 5829 5829 5828 5827 5826 5825 5824 5824 5823 5822 5822
5766 5768 5770 5771 5773 5776 5780 5784 5785 5786 5788 5790 5793 5796 5798 5801 5803 5804 5806 5807 5808 5810 5812 5813 5814 5814 5815 5815 5813 5814 5818 5820 5820 5821 5821 5822 5824 5826 5827 5829 5830 5831 5833 5834 5835 5836 5837 5838 5839 5839 5840 5840 5841 5842 5842 5843 5843 5843 5843 5842 5842 5842 5841 5841 5841 5840 5840 5840 5840 5839 5839 5838 5838 5837 5837 5836 5836 5836 5836 5835 5834 5834 5833 5832 5830 5829 5829 5828 5827 5826 5825 5824 5824 5823 5822 5821 5820
5764 5766 5768 5769 5771 5773 5777 5781 5784 5786 5787 5789 5792 5795 5797 5799 5800 5802 5803 5805 5806 5807 5808 5810 5812 5811 5813 5815 5813 5813 5815 5817 5818 5819 5820 5820 5822 5824 5825 5828 5829 5830 5831 5832 5834 5835 5836 5837 5838 5838 5838 5839 5840 5841 5841 5842 5842 5842 5841 5841 5841 5841 5840 5840 5839 5839 5839 5839 5839 5839 5838 5838 5837 5836 5836 5835 5835 5835 5835 5834 5834 5833 5832 5831 5830 5829 5828 5827 5826 5825 5824 5823 5823 5822 5821 5820 5819
5761 5764 5765 5767 5769 5771 5774 5778 5783 5785 5786 5788 5790 5793 5795 5796 5798 5800 5800 5800 5801 5803 5805 5807 5808 5807 5809 5812 5812 5810 5810 5813 5816 5817 5818 5819 5821 5822 5824 5826 5828 5829 5830 5831 5832 5833 5834 5835 5836 5837 5837 5838 5839 5840 5840 5840 5841 5840 5840 5840 5840 5840 5840 5839 5838 5838 5837 5837 5838 5838 5837 5837 5836 5835 5835 5835 5834 5834 5833 5833 5832 5831 5830 5830 5829 5828 5827 5826 5825 5824 5823 5822 5821 5820 5820 5819 5818
5759 5762 5764 5765 5768 5770 5771 5775 5780 5784 5785 5787 5789 5790 5793 5795 5796 5795 5795 5796 5797 5800 5802 5803 5804 5804 5806 5810 5812 5811 5808 5810 5814 5815 5816 5818 5819 5821 5822 5824 5826 5828 5829 5830 5831 5832 5833 5834 5835 5836 5836 5837 5837 5838 5839 5839 5839 5839 5839 5839 5839 5839 5839 5838 5837 5837 5836 5836 5836 5836 5836 5835 5835 5834 5834 5833 5833 5832 5832 5831 5830 5829 5829 5828 5828 5827 5826 5825 5824 5822 5822 5820 5819 5819 5818 5817 5816
5758 5760 5761 5763 5766 5768 5770 5772 5777 5782 5784 5785 5787 5788 5790 5793 5793 5791 5792 5796 5797 5799 5800 5800 5801 5802 5804 5808 5812 5811 5807 5808 5812 5813 5815 5816 5818 5819 5821 5823 5824 5826 5827 5828 5830 5830 5831 5833 5834 5834 5835 5835 5836 5837 5837 5837 5838 5838 5838 5838 5838 5837 5837 5837 5836 5836 5835 5835 5834 5834 5834 5833 5833 5833 5832 5832 5832 5831 5830 5829 5829 5828 5827 5827 5826 5826 5825 5824 5822 5821 5821 5819 5818 5817 5816 5815 5814
5757 5758 5760 5762 5765 5766 5768 5770 5773 5778 5782 5783 5785 5786 5788 5790 5789 5788 5791 5795 5796 5797 5797 5797 5797 5798 5801 5806 5809 5808 5805 5808 5811 5812 5814 5815 5816 5818 5819 5821 5822 5824 5825 5826 5828 5828 5830 5831 5832 5833 5833 5834 5834 5835 5835 5835 5836 5836 5836 5836 5836 5836 5836 5835 5835 5835 5834 5834 5833 5832 5832 5831 5831 5831 5831 5830 5830 5830 5829 5828 5827 5827 5826 5825 5825 5824 5823 5822 5820 5819 5819 5818 5816 5815 5814 5813 5812
5755 5757 5760 5762 5764 5765 5767 5768 5771 5775 5779 5781 5783 5784 5785 5786 5786 5787 5789 5792 5794 5794 5795 5795 5797 5799 5802 5805 5807 5806 5806 5808 5810 5811 5812 5813 5815 5816 5817 5819 5820 5822 5823 5824 5825 5826 5827 5829 5830 5831 5831 5832 5833 5833 5833 5834 5834 5834 5835 5835 5835 5834 5834 5834 5834 5834 5833 5833 5832 5831 5830 5829 5829 5829 5828 5828 5828 5828 5827 5826 5826 5825 5824 5823 5822 5822 5821 5820 5819 5817 5817 5816 5815 5813 5812 5811 5810
5753 5756 5758 5760 5762 5764 5765 5767 5769 5773 5776 5779 5780 5782 5783 5783 5784 5785 5786 5790 5792 5793 5794 5796 5798 5801 5803 5803 5802 5803 5805 5807 5809 5810 5811 5812 5813 5814 5815 5816 5818 5819 5821 5822 5823 5824 5825 5827 5828 5829 5829 5830 5830 5831 5832 5832 5832 5832 5833 5833 5833 5833 5833 5832 5832 5832 5832 5831 5830 5829 5828 5827 5827 5827 5826 5826 5826 5825 5825 5824 5823 5822 5822 5821 5820 5819 5818 5818 5817 5815 5814 5813 5813 5811 5810 5809 5808
5750 5753 5755 5757 5760 5762 5763 5765 5767 5771 5774 5776 5778 5779 5780 5781 5783 5782 5784 5788 5791 5792 5793 5794 5795 5798 5800 5799 5798 5801 5804 5805 5807 5808 5809 5811 5811 5812 5813 5814 5816 5817 5819 5820 5821 5822 5823 5825 5826 5827 5827 5828 5828 5829 5830 5830 5830 5831 5831 5831 5831 5831 5831 5831 5831 5830 5830 5830 5829 5828 5827 5826 5825 5825 5825 5825 5824 5823 5823 5822 5821 5820 5819 5818 5817 5816 5815 5814 5814 5812 5811 5810 5810 5809 5807 5806 5805
5747 5751 5753 5755 5758 5761 5762 5763 5766 5769 5772 5774 5775 5777 5777 5778 5780 5780 5781 5785 5788 5789 5790 5791 5792 5794 5798 5797 5796 5798 5801 5803 5805 5807 5808 5809 5809 5810 5811 5813 5814 5815 5817 5818 5819 5820 5821 5822 5824 5825 5825 5826 5826 5827 5828 5828 5829 5829 5829 5829 5829 5829 5829 5829 5829 5828 5828 5828 5827 5826 5825 5825 5824 5824 5823 5823 5822 5821 5820 5819 5819 5818 5817 5816 5815 5814 5813 5812 5810 5809 5808 5807 5806 5806 5805 5803 5802
5744 5748 5751 5753 5757 5759 5760 5761 5764 5767 5769 5771 5773 5774 5774 5775 5777 5777 5779 5782 5784 5786 5788 5790 5792 5792 5793 5793 5793 5795 5798 5801 5803 5805 5806 5807 5807 5808 5809 5811 5812 5813 5815 5816 5817 5818 5819 5820 5821 5822 5823 5824 5824 5825 5825 5826 5827 5827 5827 5827 5827 5827 5827 5827 5827 5826 5826 5826 5825 5824 5824 5823 5823 5822 5822 5821 5820 5819 5818 5817 5816 5815 5815 5814 5813 5812 5810 5809 5808 5806 5805 5804 5804 5803 5802 5800 5799
5741 5745 5748 5751 5755 5757 5759 5760 5762 5764 5766 5768 5770 5771 5771 5772 5774 5775 5776 5779 5781 5784 5787 5790 5792 5792 5792 5793 5792 5792 5795 5799 5801 5803 5804 5805 5806 5806 5808 5809 5810 5811 5813 5814 5815 5816 5816 5817 5819 5820 5821 5822 5822 5823 5823 5824 5824 5824 5825 5824 5824 5824 5824 5824 5824 5824 5824 5823 5823 5823 5822 5822 5821 5821 5820 5819 5818 5817 5816 5816 5815 5814 5813 5812 5811 5809 5808 5807 5805 5804 5803 5802 5801 5800 5799 5797 5796
5739 5742 5746 5749 5753 5755 5757 5758 5759 5761 5763 5766 5768 5768 5768 5770 5771 5773 5774 5776 5779 5784 5788 5789 5790 5792 5794 5797 5794 5791 5794 5798 5799 5801 5802 5802 5804 5805 5806 5807 5808 5809 5810 5812 5813 5814 5815 5815 5816 5818 5819 5820 5821 5821 5822 5822 5822 5822 5822 5822 5822 5822 5822 5822 5822 5822 5822 5821 5821 5821 5820 5820 5819 5818 5818 5817 5816 5815 5814 5814 5813 5812 5811 5809 5808 5807 5806 5804 5803 5801 5800 5799 5798 5797 5796 5795 5793
5736 5740 5744 5747 5751 5753 5754 5755 5756 5758 5761 5763 5765 5764 5766 5768 5769 5771 5773 5774 5777 5782 5786 5786 5786 5788 5792 5796 5795 5792 5795 5798 5798 5799 5800 5801 5802 5803 5804 5805 5806 5807 5808 5810 5811 5812 5813 5814 5815 5816 5817 5818 5819 5819 5820 5820 5820 5820 5820 5820 5820 5820 5819 5820 5820 5820 5819 5819 5819 5818 5818 5817 5817 5816 5815 5815 5814 5813 5812 5811 5810 5809 5808 5807 5806 5804 5803 5802 5800 5799 5798 5797 5795 5794 5793 5792 5790
5732 5737 5742 5745 5748 5751 5752 5753 5754 5756 5759 5761 5761 5762 5764 5766 5767 5768 5771 5773 5775 5779 5782 5783 5784 5787 5790 5794 5794 5793 5795 5797 5797 5797 5798 5799 5800 5801 5802 5803 5804 5805 5807 5808 5809 5810 5811 5812 5813 5814 5815 5816 5816 5817 5818 5818 5818 5818 5818 5818 5818 5818 5817 5817 5817 5817 5817 5817 5816 5816 5815 5815 5814 5814 5813 5812 5811 5810 5810 5809 5808 5807 5806 5804 5803 5802 5800 5799 5798 5797 5796 5794 5793 5791 5790 5789 5788
5730 5735 5739 5742 5745 5748 5749 5751 5752 5755 5756 5757 5758 5760 5761 5763 5765 5766 5769 5771 5772 5776 5780 5782 5785 5787 5790 5792 5792 5792 5794 5796 5796 5796 5796 5797 5798 5799 5800 5801 5802 5804 5805 5806 5807 5808 5809 5810 5811 5812 5813 5814 5814 5815 5815 5815 5815 5816 5816 5816 5816 5816 5815 5815 5815 5815 5814 5814 5814 5813 5812 5812 5811 5811 5810 5810 5809 5808 5807 5806 5805 5804 5803 5802 5800 5799 5798 5797 5795 5794 5793 5792 5790 5789 5787 5786 5786
5729 5733 5736 5739 5742 5744 5746 5748 5750 5752 5753 5754 5756 5758 5759 5760 5763 5765 5766 5769 5771 5775 5780 5783 5784 5785 5786 5788 5789 5790 5793 5794 5794 5794 5794 5795 5796 5797 5798 5799 5800 5801 5803 5804 5805 5806 5807 5808 5809 5810 5811 5812 5812 5812 5812 5812 5813 5813 5814 5814 5813 5813 5813 5813 5813 5812 5812 5811 5811 5810 5810 5809 5808 5808 5808 5807 5806 5805 5804 5804 5802 5801 5800 5799 5798 5797 5795 5794 5793 5792 5790 5789 5787 5786 5784 5783 5782
5726 5730 5733 5736 5738 5741 5743 5745 5747 5748 5749 5752 5754 5755 5756 5757 5760 5763 5765 5768 5771 5775 5779 5781 5782 5783 5784 5785 5787 5789 5791 5792 5792 5792 5792 5793 5794 5795 5796 5797 5798 5799 5800 5802 5803 5804 5804 5805 5806 5807 5809 5809 5810 5810 5810 5810 5811 5811 5811 5811 5811 5811 5811 5811 5811 5810 5809 5809 5808 5807 5807 5806 5805 5805 5805 5804 5803 5802 5801 5801 5800 5799 5797 5796 5795 5794 5793 5791 5790 5789 5788 5786 5784 5783 5782 5780 5779
5723 5727 5729 5732 5735 5738 5740 5741 5744 5745 5746 5750 5752 5753 5753 5754 5757 5761 5764 5768 5770 5772 5775 5778 5779 5781 5783 5785 5787 5788 5789 5790 5789 5789 5789 5790 5792 5793 5795 5796 5797 5797 5798 5799 5801 5802 5802 5803 5804 5805 5806 5807 5807 5808 5808 5808 5808 5809 5809 5809 5809 5809 5809 5808 5808 5807 5807 5806 5806 5805 5804 5803 5803 5802 5802 5801 5800 5799 5799 5798 5797 5796 5795 5793 5792 5791 5790 5789 5788 5786 5785 5783 5782 5780 5779 5777 5776
5718 5722 5725 5728 5731 5733 5735 5737 5740 5742 5744 5747 5749 5750 5751 5751 5755 5759 5761 5766 5769 5770 5772 5774 5776 5779 5782 5784 5785 5785 5785 5786 5787 5787 5788 5789 5791 5792 5794 5795 5796 5796 5796 5797 5799 5800 5800 5801 5802 5803 5804 5804 5805 5805 5806 5806 5806 5807 5806 5806 5806 5806 5806 5805 5805 5805 5804 5804 5803 5802 5801 5801 5800 5800 5799 5798 5797 5796 5796 5795 5794 5793 5792 5791 5789 5788 5787 5786 5785 5783 5782 5781 5779 5778 5776 5774 5773
5714 5718 5721 5724 5726 5728 5730 5733 5736 5739 5741 5744 5747 5748 5747 5748 5752 5756 5759 5763 5766 5769 5770 5772 5775 5778 5780 5782 5782 5782 5782 5784 5786 5787 5787 5788 5790 5791 5792 5793 5794 5795 5795 5796 5797 5798 5799 5799 5800 5801 5801 5802 5802 5803 5804 5804 5804 5804 5804 5803 5803 5803 5802 5802 5802 5802 5801 5801 5800 5799 5798 5798 5797 5796 5796 5795 5794 5793 5792 5791 5791 5789 5788 5787 5786 5785 5784 5783 5782 5780 5779 5778 5776 5775 5773 5772 5770
5713 5716 5719 5721 5724 5725 5727 5730 5732 5735 5738 5742 5745 5745 5743 5744 5748 5753 5757 5760 5763 5766 5768 5771 5773 5775 5776 5777 5778 5779 5780 5782 5784 5785 5786 5787 5788 5789 5790 5791 5792 5792 5793 5794 5795 5796 5797 5797 5798 5798 5799 5800 5800 5801 5801 5802 5802 5801 5801 5800 5800 5800 5799 5799 5799 5799 5798 5798 5797 5796 5795 5794 5794 5793 5792 5791 5790 5789 5788 5788 5787 5786 5785 5784 5783 5782 5781 5780 5779 5777 5776 5775 5773 5772 5770 5769 5767
5710 5713 5715 5718 5721 5723 5725 5728 5731 5734 5736 5740 5742 5741 5740 5742 5746 5751 5755 5758 5761 5764 5766 5768 5770 5773 5774 5775 5776 5778 5780 5782 5782 5783 5784 5785 5786 5787 5788 5789 5790 5790 5790 5791 5793 5794 5795 5796 5796 5797 5797 5798 5798 5798 5799 5799 5798 5798 5798 5797 5797 5797 5796 5796 5795 5795 5795 5794 5793 5792 5792 5791 5790 5789 5788 5787 5787 5786 5785 5784 5783 5782 5781 5780 5779 5779 5778 5777 5776 5774 5773 5772 5771 5769 5768 5766 5764
5704 5708 5711 5714 5717 5720 5723 5727 5729 5731 5733 5737 5739 5738 5738 5741 5745 5749 5752 5755 5758 5761 5764 5766 5768 5770 5772 5772 5775 5777 5779 5780 5781 5781 5782 5783 5784 5785 5786 5787 5787 5787 5788 5789 5790 5791 5793 5793 5794 5795 5795 5795 5795 5795 5796 5796 5795 5795 5795 5794 5794 5794 5793 5793 5792 5791 5791 5790 5790 5789 5788 5788 5787 5786 5785 5784 5783 5782 5782 5781 5780 5779 5777 5776 5776 5775 5774 5773 5772 5771 5770 5769 5767 5766 5764 5763 5761
5702 5705 5707 5710 5714 5718 5722 5724 5725 5728 5730 5733 5736 5736 5737 5740 5743 5746 5749 5752 5755 5759 5762 5764 5765 5768 5769 5770 5773 5775 5776 5778 5778 5779 5780 5780 5781 5782 5783 5784 5784 5784 5785 5786 5788 5789 5790 5791 5791 5792 5792 5792 5792 5792 5792 5792 5792 5792 5792 5792 5791 5791 5790 5789 5789 5788 5788 5787 5786 5786 5785 5785 5784 5783 5782 5781 5780 5779 5778 5777 5776 5775 5774 5773 5772 5771 5770 5770 5768 5767 5766 5765 5764 5762 5761 5759 5758
5700 5703 5705 5709 5712 5716 5718 5719 5721 5724 5726 5729 5732 5733 5735 5738 5740 5743 5747 5751 5754 5757 5759 5762 5764 5766 5767 5769 5771 5772 5773 5775 5776 5777 5778 5779 5779 5780 5781 5781 5782 5782 5783 5784 5785 5786 5787 5788 5788 5788 5788 5789 5789 5789 5789 5789 5789 5789 5789 5788 5788 5788 5787 5786 5785 5785 5784 5784 5783 5783 5782 5781 5780 5779 5779 5777 5776 5775 5774 5773 5772 5771 5770 5769 5768 5767 5766 5765 5764 5763 5762 5761 5760 5758 5757 5756 5754
5694 5698 5702 5707 5711 5714 5716 5718 5720 5722 5724 5726 5729 5730 5733 5736 5739 5742 5745 5749 5752 5755 5757 5760 5762 5764 5765 5766 5768 5769 5770 5772 5773 5774 5775 5776 5777 5778 5779 5779 5779 5780 5781 5782 5783 5784 5784 5784 5784 5784 5785 5785 5785 5785 5786 5786 5786 5785 5785 5785 5785 5784 5783 5782 5782 5781 5781 5780 5780 5779 5779 5778 5777 5776 5775 5774 5773 5771 5770 5769 5768 5767 5766 5765 5764 5763 5762 5761 5759 5758 5757 5756 5755 5754 5753 5752 5750
5691 5693 5697 5702 5705 5709 5713 5716 5718 5720 5722 5724 5726 5728 5731 5735 5738 5740 5744 5747 5750 5752 5755 5757 5759 5761 5763 5764 5765 5766 5768 5769 5770 5771 5773 5774 5775 5776 5777 5777 5777 5778 5779 5780 5781 5781 5781 5780 5780 5781 5781 5781 5781 5782 5782 5782 5782 5782 5782 5782 5781 5780 5779 5779 5778 5778 5777 5777 5776 5776 5775 5774 5773 5772 5770 5769 5768 5767 5766 5764 5763 5762 5761 5760 5759 5758 5757 5756 5754 5753 5752 5751 5750 5749 5748 5747 5746
5691 5694 5696 5699 5702 5705 5709 5710 5713 5717 5719 5721 5723 5726 5730 5733 5736 5739 5741 5744 5747 5750 5752 5754 5756 5758 5760 5761 5762 5763 5765 5766 5767 5768 5770 5771 5773 5774 5774 5775 5775 5776 5777 5777 5778 5778 5777 5777 5777 5777 5777 5777 5777 5778 5778 5778 5778 5779 5779 5778 5778 5777 5776 5775 5774 5774 5773 5773 5772 5772 5771 5770 5769 5767 5766 5765 5763 5762 5761 5760 5758 5757 5756 5755 5754 5753 5752 5750 5749 5748 5747 5746 5745 5744 5743 5742 5741